This demonstration page uses our WeatherBlox Daily Observations layout. Learn more.

Left ArrowRight Arrow

40.92501, -98.34201

Hourly Observations for May 20, 2020

Temp ( °F °C ) Dew Point ( °F °C ) Humidity (%) Winds ( mph kmh ) Pressure ( in mb ) Visibility ( mi km ) Precip ( " mm )
12:53 am 00:53 Clear 56 13.3 50 10 81 81 ESE 10 17 30.02 1017 10 16 0.00 0.00
1:53 am 01:53 Clear 54 12.2 50 10 87 87 SE 10 17 30.02 1017 10 16 0.00 0.00
2:53 am 02:53 Clear 53 11.7 49 9.4 86 86 SE 12 19 30.01 1016 9 14 0.00 0.00
3:53 am 03:53 Clear 53 11.7 49 9.4 86 86 SE 9 15 30.01 1016 8 13 0.00 0.00
4:53 am 04:53 Clear 52 11.1 49 9.4 89 89 SE 10 17 30.01 1016 7 11 0.00 0.00
5:53 am 05:53 Clear with Mist and Fog 52 11.1 49 9.4 89 89 SE 10 17 30.01 1016 6 10 0.00 0.00
6:50 am 06:50 Partly Cloudy with Mist and Fog 52 11 48 9 88 88 SE 12 19 30.00 1016 5 8 0.00 0.00
6:53 am 06:53 Partly Cloudy with Mist and Fog 52 11.1 49 9.4 89 89 SE 13 20 29.99 1016 5 8 0.00 0.00
7:50 am 07:50 Mostly Cloudy 54 12 52 11 94 94 SE 15 24 30.01 1016 7 11 0.00 0.00
7:53 am 07:53 Mostly Cloudy 54 12.2 51 10.6 90 90 SE 16 26 30.01 1016 7 11 0.00 0.00
8:53 am 08:53 Cloudy 57 13.9 52 11.1 83 83 SSE 10 17 30.03 1017 8 13 0.00 0.00
9:53 am 09:53 Cloudy 59 15 52 11.1 78 78 SE 12 19 30.02 1017 10 16 0.00 0.00
10:53 am 10:53 Cloudy 63 17.2 53 11.7 70 70 SE 12 19 30.01 1016 10 16 0.00 0.00
11:00 am 11:00 Cloudy 63 17.2 53 11.7 70 70 SE 13 20 29.98 1015 10 16 0.00 0.00
11:53 am 11:53 Mostly Cloudy 67 19.4 53 11.7 61 61 ESE 15 24 29.99 1016 10 16 0.00 0.00
12:48 pm 12:48 Partly Cloudy 72 22 54 12 53 53 ESE 21 33 29.92 1013 10 16 0.00 0.00
12:53 pm 12:53 Mostly Sunny 71 21.7 53 11.7 53 53 SE 17 28 29.97 1015 10 16 0.00 0.00
1:53 pm 13:53 Sunny 76 24.4 53 11.7 45 45 SE 17 28 29.96 1014 10 16 0.00 0.00
2:53 pm 14:53 Sunny 78 25.6 52 11.1 40 40 ESE 18 30 29.93 1014 10 16 0.00 0.00
3:53 pm 15:53 Sunny 80 26.7 52 11.1 38 38 SSE 18 30 29.90 1013 10 16 0.00 0.00
4:53 pm 16:53 Sunny 79 26.1 51 10.6 38 38 SE 16 26 29.88 1012 10 16 0.00 0.00
5:53 pm 17:53 Sunny 79 26.1 51 10.6 38 38 SSE 14 22 29.86 1011 10 16 0.00 0.00
6:53 pm 18:53 Sunny 76 24.4 53 11.7 45 45 SE 20 31 29.86 1011 10 16 0.00 0.00
7:53 pm 19:53 Mostly Sunny 72 22.2 54 12.2 53 53 SE 22 35 29.87 1012 10 16 0.00 0.00
8:53 pm 20:53 Clear 68 20 53 11.7 59 59 ESE 21 33 29.88 1012 10 16 0.00 0.00
9:53 pm 21:53 Clear 65 18.3 53 11.7 66 66 ESE 20 31 29.87 1012 10 16 0.00 0.00
10:53 pm 22:53 Partly Cloudy 63 17.2 53 11.7 70 70 SSE 12 19 29.91 1013 10 16 0.00 0.00
11:01 pm 23:01 Mostly Cloudy 64 17.8 53 11.7 68 68 SSE 14 22 29.87 1011 10 16 0.00 0.00
11:53 pm 23:53 Cloudy 64 17.8 53 11.7 68 68 SSE 15 24 29.90 1013 10 16 0.00 0.00

Powered by AerisWeather